This is the latest recevied weather packets stored in our database for station/object KJ7HSW. If no packets are shown the sender has not sent any weather packets the latest 10 day(s).
| Time | Temp. | Humidity | Pressure | Rain* | Wind** | Luminosity | Snow |
|---|---|---|---|---|---|---|---|
| 1777867334 | 17.22° C | 64% | 1010.2 hPa | 0 mm | - | 0 W/m² | - |
| 1777867030 | 17.22° C | 65% | 1010.1 hPa | 0 mm | - | 0 W/m² | - |
| 1777866728 | 17.22° C | 66% | 1010.1 hPa | 0 mm | - | 0 W/m² | - |
| 1777866425 | 17.22° C | 67% | 1010.1 hPa | 0 mm | - | 0 W/m² | - |
| 1777866122 | 17.78° C | 65% | 1009.8 hPa | 0 mm | - | 0 W/m² | - |
| 1777865819 | 17.78° C | 66% | 1009.8 hPa | 0 mm | - | 1 W/m² | - |
| 1777865516 | 17.78° C | 62% | 1010 hPa | 0 mm | - | 2 W/m² | - |
| 1777865213 | 18.33° C | 62% | 1010 hPa | 0 mm | - | 3 W/m² | - |
| 1777864910 | 18.33° C | 64% | 1009.8 hPa | 0 mm | - | 4 W/m² | - |
| 1777864607 | 18.89° C | 62% | 1009.8 hPa | 0 mm | - | 6 W/m² | - |
| 1777864304 | 18.89° C | 63% | 1009.6 hPa | 0 mm | - | 8 W/m² | - |
| 1777864000 | 19.44° C | 64% | 1009.7 hPa | 0 mm | - | 10 W/m² | - |
| 1777863697 | 19.44° C | 62% | 1009.8 hPa | 0 mm | - | 13 W/m² | - |
| 1777863394 | 20° C | 60% | 1009.6 hPa | 0 mm | - | 16 W/m² | - |
| 1777863091 | 20° C | 58% | 1009.6 hPa | 0 mm | - | 18 W/m² | - |
| 1777862788 | 20.56° C | 57% | 1009.6 hPa | 0 mm | - | 20 W/m² | - |
| 1777862485 | 20.56° C | 55% | 1009.6 hPa | 0 mm | - | 22 W/m² | - |
| 1777862181 | 20.56° C | 53% | 1009.6 hPa | 0 mm | - | 24 W/m² | - |
| 1777861877 | 21.11° C | 53% | 1009.6 hPa | 0 mm | - | 25 W/m² | - |
| 1777861574 | 21.11° C | 53% | 1009.6 hPa | 0 mm | - | 27 W/m² | - |
| 1777861270 | 21.67° C | 52% | 1009.6 hPa | 0 mm | - | 28 W/m² | - |
| 1777860968 | 21.67° C | 49% | 1009.6 hPa | 0 mm | - | 30 W/m² | - |
| 1777860664 | 22.22° C | 48% | 1009.7 hPa | 0 mm | - | 30 W/m² | - |
| 1777860361 | 22.22° C | 48% | 1009.7 hPa | 0 mm | - | 33 W/m² | - |
| 1777860057 | 22.78° C | 46% | 1009.7 hPa | 0 mm | - | 35 W/m² | - |
* Rain latest hour (hover to see other rain measurements)
** Current wind speed in m/s (hover to see current wind gust speed)